Temp
21 21 21 21 21 21 21 21 21 21 20 21 21 21 20 20 20 19 19 19 19 18 18 18 18 18 17 17 17 17 17 17 17 17 16 16 16 16 16 16 16 15 15
21 21 21 21 21 21 21 21 21 21 20 20 21 21 20 20 20 20 19 19 19 19 18 18 18 18 17 17 17 17 17 17 17 16 16 16 16 16 16 16 16 15 15
21 21 21 21 21 21 21 21 21 20 20 20 20 20 20 20 20 20 19 19 19 18 18 18 18 18 17 17 17 17 17 17 16 16 16 16 16 16 16 16 16 15 15
20 20 20 20 20 21 20 20 20 20 20 20 20 20 20 20 20 20 19 19 19 18 18 18 18 17 17 17 17 17 17 17 16 16 16 15 15 15 15 16 16 15 15
19 19 19 20 20 20 20 20 20 20 20 20 20 20 20 20 20 20 20 19 19 19 18 18 18 18 17 17 17 17 17 17 16 16 15 15 15 15 15 15 16 16 15
18 18 19 19 19 19 19 19 20 20 20 20 20 20 19 20 19 19 19 19 19 19 19 19 19 18 18 17 17 17 17 17 16 16 15 15 15 15 15 15 15 16 16
19 18 18 18 19 19 19 18 18 19 19 19 19 19 19 19 19 19 19 19 19 19 19 18 18 18 18 18 17 17 17 17 17 16 16 15 15 15 15 15 15 15 16
19 18 18 18 18 18 18 18 18 18 18 18 19 19 19 19 19 19 19 19 18 18 18 18 18 18 18 18 17 17 17 16 16 16 16 16 16 15 15 15 15 15 16
18 17 17 17 17 17 18 18 18 18 18 18 18 18 18 18 18 18 18 18 18 18 18 18 18 18 18 17 17 17 17 16 16 17 16 16 16 16 15 15 15 15 15
17 17 17 17 17 17 17 17 17 17 17 17 18 18 18 17 17 17 17 17 17 17 17 17 17 17 17 17 17 16 17 17 17 17 17 17 16 16 16 16 15 15 15
18 17 17 17 17 17 17 17 17 17 17 17 17 18 18 18 17 17 16 16 16 16 16 16 16 15 15 15 16 16 16 16 16 17 17 17 17 16 16 16 16 16 15
17 17 18 18 18 18 17 17 17 17 17 17 17 17 17 17 17 17 16 16 16 16 16 16 15 15 15 15 15 15 15 15 16 16 17 17 17 16 16 16 16 15 15
18 18 18 18 18 17 17 17 16 16 16 16 16 16 16 16 16 16 15 14 15 15 15 16 15 15 16 15 16 15 15 16 16 15 15 16 16 16 16 15 15 15 15
17 17 16 17 16 16 16 16 16 16 15 15 14 15 15 15 15 15 14 15 15 15 15 15 16 16 15 15 15 15 15 15 15 15 16 15 15 16 16 15 15 15 14
17 17 16 15 15 15 14 14 14 14 14 14 12 14 14 14 14 14 14 14 14 14 14 13 14 14 14 14 15 15 15 15 15 15 15 15 15 15 15 16 16 15 15
16 15 15 14 13 13 13 12 12 12 12 12 12 12 12 13 14 14 13 14 13 14 14 14 14 14 14 14 13 14 14 15 15 15 15 16 15 15 15 15 16 16 14
15 15 14 13 12 12 11 11 11 11 11 11 11 11 11 12 13 13 13 14 13 13 13 14 13 13 13 13 13 13 13 14 14 15 15 15 15 15 15 15 15 16 15
13 13 13 13 12 11 10 10 10 10 10 11 11 11 11 11 11 11 12 13 13 12 12 13 13 13 13 13 13 13 13 14 14 14 14 15 15 15 15 16 15 15 15
12 12 11 11 11 10 9 9 9 9 10 10 10 10 10 10 10 11 11 11 11 12 12 12 11 12 13 14 13 13 13 14 14 14 14 15 14 14 14 15 15 15 14
12 11 11 11 10 9 8 8 8 8 8 9 9 9 9 9 9 10 10 10 10 11 11 11 11 11 11 12 12 13 14 13 14 14 15 15 14 13 13 13 14 14 13
12 11 10 10 9 8 8 7 7 8 8 8 8 8 8 8 8 8 8 9 9 9 10 10 10 11 11 10 10 12 13 13 13 14 14 14 12 12 12 13 12 12 11
10 11 9 10 9 8 8 8 8 7 7 7 7 7 7 7 7 7 7 7 8 8 8 8 9 9 9 8 8 8 10 11 11 11 11 11 11 11 11 11 11 11 11
9 9 9 9 9 9 8 7 7 6 6 5 6 7 7 7 7 7 7 7 7 7 7 7 7 7 7 8 5 4 4 5 8 9 9 9 9 9 9 10 10 9 10
9 9 9 9 8 8 8 7 7 6 6 6 6 6 6 6 6 6 6 6 6 6 5 5 5 4 4 3 4 2 2 2 3 6 8 8 9 9 8 8 9 9 8
8 8 8 8 8 8 8 8 7 7 7 6 5 5 5 5 5 5 5 5 4 4 4 3 2 0 -1 -0 -0 0 1 2 2 2 3 4 6 7 7 8 8 8 8
7 7 7 7 8 7 7 7 7 7 7 6 5 5 4 3 4 3 2 2 1 0 -0 -1 -2 -2 -2 -1 -1 -1 -1 -1 0 1 1 1 1 2 3 6 6 5 6
Height
1518 1520 1522 1523 1524 1525 1525 1525 1526 1526 1527 1527 1527 1527 1527 1528 1529 1530 1530 1531 1532 1534 1536 1536 1538 1539 1540 1540 1540 1540 1540 1540 1540 1540 1540 1540 1540 1540 1540 1540 1540 1541 1541
1519 1521 1523 1524 1525 1526 1527 1527 1528 1528 1528 1528 1528 1529 1529 1529 1530 1530 1531 1532 1533 1534 1535 1537 1538 1540 1541 1541 1541 1541 1541 1541 1541 1541 1541 1541 1542 1542 1542 1542 1542 1543 1543
1520 1522 1524 1525 1527 1528 1528 1529 1529 1529 1530 1530 1530 1530 1530 1530 1531 1531 1532 1532 1534 1535 1536 1538 1539 1540 1541 1542 1542 1542 1542 1543 1542 1542 1542 1542 1544 1544 1545 1545 1545 1546 1546
1520 1522 1524 1526 1527 1529 1529 1530 1530 1531 1531 1531 1532 1532 1532 1532 1532 1532 1533 1533 1534 1535 1536 1538 1540 1541 1542 1542 1542 1543 1543 1543 1543 1544 1544 1545 1545 1546 1546 1546 1547 1548 1548
1523 1524 1524 1526 1527 1528 1530 1530 1531 1531 1532 1532 1532 1532 1533 1533 1533 1533 1533 1534 1535 1535 1536 1537 1538 1540 1541 1543 1543 1543 1543 1544 1544 1545 1546 1547 1547 1547 1547 1548 1549 1548 1549
1521 1521 1521 1521 1522 1525 1527 1529 1530 1531 1531 1532 1532 1532 1533 1533 1533 1534 1533 1533 1534 1535 1535 1536 1537 1539 1540 1541 1543 1543 1543 1544 1544 1545 1546 1547 1547 1548 1548 1548 1548 1549 1549
1521 1521 1522 1523 1523 1523 1525 1525 1528 1530 1531 1531 1532 1532 1532 1533 1533 1533 1533 1534 1534 1535 1535 1536 1536 1536 1537 1539 1540 1541 1542 1542 1543 1544 1545 1545 1546 1547 1548 1548 1548 1548 1549
1521 1522 1522 1523 1524 1524 1525 1527 1527 1526 1527 1529 1531 1532 1532 1533 1533 1533 1533 1534 1534 1535 1535 1535 1535 1536 1536 1536 1537 1538 1540 1540 1541 1542 1543 1543 1545 1545 1546 1547 1548 1548 1547
1521 1523 1523 1524 1524 1525 1526 1526 1526 1527 1527 1526 1527 1527 1529 1530 1531 1532 1533 1533 1533 1534 1534 1534 1534 1534 1534 1535 1536 1536 1537 1537 1537 1539 1540 1542 1542 1544 1545 1545 1547 1546 1547
1522 1523 1524 1524 1524 1525 1525 1525 1525 1526 1526 1526 1525 1525 1526 1527 1527 1528 1529 1530 1531 1531 1532 1532 1532 1532 1532 1532 1532 1533 1534 1534 1534 1535 1536 1538 1539 1540 1541 1543 1544 1545 1545
1523 1524 1523 1524 1524 1524 1524 1524 1523 1524 1524 1524 1524 1524 1524 1524 1524 1525 1526 1526 1526 1527 1528 1528 1528 1529 1529 1529 1528 1530 1530 1531 1533 1533 1533 1534 1535 1536 1537 1538 1539 1541 1541
1523 1524 1523 1523 1523 1523 1523 1522 1522 1522 1522 1522 1523 1522 1522 1522 1522 1521 1521 1522 1523 1523 1523 1523 1524 1525 1525 1524 1525 1526 1526 1527 1528 1530 1531 1531 1532 1532 1533 1533 1534 1536 1538
1523 1523 1523 1522 1521 1521 1520 1519 1519 1519 1519 1519 1519 1519 1520 1519 1519 1519 1519 1520 1521 1521 1521 1521 1520 1520 1521 1520 1521 1523 1522 1522 1523 1524 1525 1526 1526 1527 1528 1529 1530 1532 1533
1520 1520 1520 1519 1518 1517 1517 1517 1516 1515 1516 1516 1516 1516 1517 1517 1517 1517 1517 1517 1517 1517 1518 1517 1516 1517 1516 1516 1515 1517 1517 1516 1516 1517 1518 1520 1520 1520 1522 1524 1524 1526 1529
1518 1518 1517 1516 1516 1515 1514 1514 1514 1514 1514 1514 1514 1514 1514 1514 1514 1514 1515 1514 1514 1514 1514 1514 1514 1513 1513 1513 1512 1512 1512 1512 1511 1512 1512 1512 1513 1515 1516 1517 1518 1522 1524
1517 1516 1515 1514 1513 1513 1513 1513 1512 1512 1512 1512 1512 1512 1513 1512 1513 1512 1512 1512 1511 1511 1511 1510 1510 1510 1510 1509 1508 1508 1507 1506 1506 1506 1505 1505 1505 1507 1508 1507 1510 1511 1517
1514 1514 1513 1513 1512 1512 1511 1511 1511 1511 1510 1511 1511 1511 1511 1511 1511 1510 1509 1509 1508 1507 1507 1506 1506 1504 1504 1504 1504 1503 1502 1501 1500 1500 1499 1498 1497 1498 1498 1501 1502 1504 1508
1512 1512 1512 1511 1511 1511 1511 1510 1511 1511 1510 1510 1509 1509 1509 1508 1508 1507 1506 1505 1504 1503 1502 1501 1501 1500 1498 1496 1496 1498 1497 1496 1496 1495 1493 1492 1492 1492 1492 1492 1494 1497 1497
1509 1510 1511 1510 1509 1510 1510 1509 1510 1510 1510 1509 1508 1508 1507 1507 1506 1505 1504 1502 1500 1499 1497 1496 1496 1494 1491 1490 1489 1489 1490 1490 1490 1489 1488 1487 1486 1485 1485 1486 1488 1490 1491
1508 1508 1509 1508 1508 1508 1508 1508 1509 1509 1508 1508 1507 1507 1506 1505 1504 1503 1501 1500 1498 1496 1494 1492 1491 1489 1486 1484 1483 1483 1483 1483 1483 1483 1482 1482 1481 1481 1480 1481 1483 1482 1487
1505 1505 1507 1506 1506 1507 1506 1506 1507 1507 1506 1506 1506 1505 1504 1504 1503 1501 1500 1498 1496 1493 1491 1488 1486 1484 1483 1480 1478 1478 1478 1476 1477 1477 1476 1476 1477 1476 1476 1476 1479 1481 1481
1503 1504 1504 1505 1505 1505 1506 1506 1506 1506 1505 1504 1504 1503 1502 1501 1500 1499 1497 1496 1493 1491 1489 1486 1483 1481 1480 1479 1476 1474 1473 1473 1473 1472 1471 1472 1472 1471 1471 1471 1471 1474 1476
1501 1501 1502 1503 1503 1504 1505 1505 1505 1505 1504 1503 1502 1502 1501 1500 1499 1497 1496 1494 1491 1489 1487 1484 1480 1477 1476 1477 1477 1477 1476 1474 1470 1469 1469 1469 1469 1468 1467 1466 1467 1470 1472
1498 1499 1500 1501 1502 1502 1503 1504 1504 1504 1503 1502 1501 1501 1500 1499 1497 1496 1493 1491 1489 1487 1485 1481 1479 1475 1472 1472 1474 1476 1476 1476 1475 1469 1466 1467 1465 1465 1465 1464 1465 1465 1466
1496 1497 1498 1499 1500 1501 1502 1503 1503 1502 1501 1500 1500 1500 1499 1498 1496 1494 1492 1490 1487 1485 1482 1480 1477 1476 1471 1470 1471 1472 1473 1472 1473 1472 1465 1463 1462 1461 1460 1461 1463 1461 1459
1492 1494 1496 1497 1497 1499 1501 1501 1501 1501 1500 1500 1499 1499 1498 1497 1496 1494 1492 1489 1486 1483 1479 1479 1477 1477 1472 1468 1468 1470 1471 1471 1469 1468 1464 1461 1460 1457 1456 1459 1457 1455 1453
Wind_Speed
19 17 16 15 14 12 12 12 11 10 9 9 9 10 11 10 9 8 7 6 7 6 6 5 5 3 2 1 1 2 4 6 6 5 4 3 3 5 6 7 8 9 9
19 17 15 13 12 11 10 10 10 10 8 8 8 9 9 9 9 8 8 8 7 6 6 5 4 2 2 1 1 1 4 5 5 3 2 2 0 2 5 6 7 8 9
17 15 12 11 10 10 9 9 9 9 8 7 6 6 7 7 7 7 6 6 6 6 6 5 3 2 2 1 1 2 3 4 3 2 1 1 2 2 3 3 6 7 9
15 13 11 8 8 8 8 8 7 8 7 6 5 4 4 4 4 5 5 5 5 6 6 6 5 4 3 3 3 3 3 3 3 1 1 3 3 3 3 2 4 7 8
11 9 9 8 7 7 7 8 7 7 7 5 5 4 3 2 2 2 3 4 4 5 6 7 6 5 4 4 4 4 4 4 4 3 3 4 3 4 5 5 5 6 8
13 13 14 14 13 10 7 7 7 6 7 6 6 6 6 5 4 3 3 4 4 5 6 6 7 7 7 6 6 7 6 5 6 6 6 6 5 6 6 8 8 8 9
12 13 12 11 11 12 12 11 7 5 6 6 7 8 8 8 8 8 7 7 7 7 7 7 8 9 9 9 9 9 9 8 8 8 8 10 9 11 10 9 9 11 11
11 11 10 10 9 10 10 8 9 10 8 6 6 7 9 10 10 11 11 11 11 11 11 10 10 11 11 11 12 11 12 12 11 10 10 12 12 9 11 12 13 13 13
12 10 9 7 7 7 8 9 9 9 9 8 8 8 8 9 11 13 13 14 14 15 15 15 15 15 14 14 14 13 13 14 15 14 13 12 14 14 16 17 15 17 16
12 9 7 5 5 5 6 8 9 9 9 9 10 10 10 11 11 12 14 14 15 16 17 18 18 18 18 18 18 17 16 16 16 16 16 15 15 17 15 17 17 17 19
8 6 4 3 4 5 6 7 11 12 12 11 10 11 12 12 12 12 13 15 15 16 17 18 19 19 20 21 22 22 21 22 20 19 18 17 17 18 19 17 20 18 18
6 3 3 6 8 9 9 11 12 13 15 14 13 11 11 12 13 15 16 17 18 19 19 18 18 18 19 21 22 23 26 26 25 24 21 20 20 19 20 23 21 22 20
3 6 10 14 14 13 12 12 12 13 14 14 13 14 13 14 14 15 14 14 13 15 17 18 19 19 20 22 23 23 26 27 30 29 26 23 23 23 21 22 25 25 25
3 7 9 10 11 9 8 8 9 10 13 13 12 11 12 14 14 13 15 14 16 18 19 20 21 21 20 21 22 23 23 26 26 29 31 29 27 26 25 26 26 25 29
6 9 10 8 8 8 8 7 6 6 8 10 10 8 8 11 14 15 18 18 17 16 16 16 18 18 19 20 21 22 22 24 26 27 28 30 33 30 28 27 26 28 29
5 6 6 6 5 6 6 6 5 5 4 6 8 10 12 13 19 17 13 17 16 17 19 20 20 22 23 22 22 22 23 23 22 24 27 30 31 32 34 35 34 30 33
2 5 5 4 4 4 4 4 5 4 5 5 5 6 9 13 19 17 17 20 21 20 21 26 25 25 27 26 26 26 26 25 25 24 24 25 26 25 29 32 35 38 41
1 2 3 3 3 3 4 4 5 5 4 5 6 7 8 9 10 13 17 22 25 23 22 25 26 26 28 32 32 28 27 26 25 24 22 21 22 24 25 29 32 42 45
2 1 1 1 1 2 2 4 5 6 6 6 6 6 7 8 9 11 13 16 18 20 21 21 22 24 26 28 24 23 24 24 23 22 23 22 22 21 22 22 23 28 30
3 2 2 2 1 2 3 3 3 4 4 5 5 6 7 8 8 9 11 13 15 17 18 19 21 21 23 25 23 23 23 22 20 21 23 23 21 19 20 20 20 24 26
6 4 3 2 3 5 5 5 4 5 6 7 9 9 10 11 11 11 12 13 14 15 16 17 18 20 20 21 22 19 19 19 17 19 21 22 19 18 16 11 10 14 21
8 5 4 4 4 5 6 6 5 5 6 8 11 13 14 13 13 14 15 17 18 18 18 18 17 18 18 16 17 17 9 8 11 13 16 17 17 17 18 15 12 11 13
10 7 7 7 7 6 5 4 3 4 6 9 11 11 12 14 14 15 16 16 17 18 20 20 19 19 19 17 11 6 6 5 13 9 15 16 16 14 12 14 15 12 17
12 11 11 10 7 5 4 2 2 3 5 7 9 11 12 13 14 15 16 16 17 17 16 16 16 15 16 16 11 6 7 9 6 12 10 12 19 20 17 17 16 16 14
16 15 14 10 8 5 4 3 1 2 4 6 9 11 11 11 12 13 14 15 15 15 15 15 14 13 12 11 11 13 14 11 12 18 22 20 20 19 22 20 16 16 18
17 17 15 12 9 6 3 1 0 2 4 6 8 10 12 13 13 14 15 15 14 14 14 14 13 13 11 10 10 10 12 9 12 14 19 24 25 22 22 20 16 12 15
Wind_Direction
165 165 160 157 160 157 151 149 148 139 124 114 102 107 119 127 132 140 137 133 137 144 151 157 165 158 149 149 86 38 8 6 11 12 29 43 106 140 144 145 144 140 142
176 165 160 159 163 159 155 153 152 149 137 127 112 107 118 128 137 141 141 144 152 156 162 168 170 165 158 139 120 0 357 2 359 357 37 57 110 170 158 158 152 155 150
163 159 156 161 165 165 161 158 156 155 148 141 125 114 116 129 137 139 144 151 160 167 180 191 202 220 221 219 266 320 343 350 344 4 73 134 154 150 162 174 169 170 165
164 155 152 157 163 171 172 169 165 165 161 153 151 137 120 120 134 148 155 167 178 185 196 209 223 237 248 255 255 281 313 323 322 52 110 143 194 197 204 210 191 191 183
136 142 149 162 166 170 171 173 175 174 180 183 184 181 184 165 156 172 186 197 204 207 216 225 232 241 247 246 244 267 289 305 301 271 266 266 248 255 241 246 243 213 203
145 152 168 169 165 162 165 180 187 189 197 203 209 216 221 225 227 236 240 241 243 240 240 246 251 254 252 247 245 254 265 276 287 282 263 269 256 251 262 246 237 245 223
146 155 160 164 174 177 180 171 176 207 218 223 229 231 235 238 239 243 249 256 261 264 261 259 260 258 257 252 248 249 260 264 267 272 267 267 253 258 257 254 248 248 244
148 148 158 170 182 191 192 193 193 189 194 222 251 259 261 261 259 258 258 262 266 269 271 271 271 271 270 266 257 250 254 265 266 263 263 264 276 263 255 260 255 249 251
152 156 154 160 176 194 199 205 214 214 215 212 215 221 240 262 269 270 268 268 270 273 276 278 278 277 277 275 272 264 256 258 266 269 264 259 257 263 278 259 260 259 250
146 151 151 163 181 207 211 209 211 215 219 219 219 222 235 242 251 261 269 273 274 275 276 277 279 280 281 281 281 280 275 265 261 262 264 261 254 257 276 258 255 263 255
155 159 167 208 245 248 247 242 240 231 229 230 236 233 231 236 240 249 259 263 263 266 271 274 274 273 274 273 275 276 275 272 272 267 262 260 259 254 257 265 249 254 254
168 197 279 299 290 283 274 265 261 261 257 249 248 240 242 242 244 248 250 253 257 258 259 261 268 272 273 273 271 274 276 276 274 274 270 264 259 257 255 256 256 250 253
224 289 291 293 290 284 279 272 264 259 261 263 262 260 255 255 249 250 262 267 275 279 276 267 268 270 275 276 276 281 280 275 273 270 269 266 262 259 255 252 256 252 249
313 322 311 295 294 292 282 270 267 264 262 259 261 266 258 250 251 254 257 258 258 267 270 269 271 273 274 274 276 274 275 279 281 277 272 267 260 255 257 251 246 250 248
299 303 303 298 291 297 300 299 290 285 278 272 262 268 265 260 260 263 265 262 265 269 272 281 283 282 282 281 279 278 275 275 277 278 277 270 267 266 261 255 250 258 248
250 288 296 301 308 310 315 324 322 321 313 293 279 263 267 265 264 263 268 268 267 271 276 279 283 286 287 288 288 285 282 283 282 281 280 279 275 268 259 250 246 247 255
285 294 278 287 299 315 328 338 343 329 324 325 320 306 283 267 264 273 272 276 279 278 282 286 285 288 288 291 294 291 287 285 284 282 281 279 276 271 263 258 255 249 252
262 235 254 284 308 335 334 337 343 343 343 329 317 312 307 300 291 283 280 276 277 281 283 282 282 281 287 291 290 293 289 284 281 277 273 275 276 271 262 256 250 250 255
199 186 212 208 254 288 308 317 325 335 346 356 354 338 325 313 301 292 286 281 280 283 284 286 285 287 287 284 293 292 293 286 279 269 268 268 268 264 258 244 254 243 249
232 231 210 205 198 201 218 251 278 307 334 353 348 345 339 328 319 310 302 295 290 288 288 289 292 294 293 289 287 291 294 287 274 263 258 260 262 262 257 250 253 249 251
217 251 256 262 187 181 201 234 258 286 317 331 333 332 330 321 315 313 310 305 301 299 297 296 294 293 294 297 303 291 284 281 267 250 243 248 253 249 256 260 248 256 255
210 228 225 218 192 185 199 225 247 271 305 323 332 334 333 328 321 313 308 303 300 299 296 295 300 304 308 320 320 320 311 273 238 234 229 231 234 239 237 234 222 223 241
205 197 182 162 143 141 155 179 233 274 302 316 321 327 325 325 323 322 320 316 311 306 300 297 295 295 297 300 323 324 334 312 309 235 223 226 227 229 237 238 232 233 236
199 189 175 166 156 147 146 180 236 273 291 307 320 330 332 331 326 323 321 318 313 313 315 315 312 305 300 304 296 243 263 275 308 301 243 248 248 250 257 259 261 260 252
192 180 176 168 159 157 161 174 208 304 334 343 339 335 338 342 341 334 327 324 324 321 322 321 319 314 313 311 306 301 291 275 267 268 285 287 268 264 266 272 284 275 259
188 187 183 179 169 163 159 149 12 344 348 346 346 344 349 357 359 357 358 356 349 345 341 334 332 326 320 311 309 298 291 298 270 281 286 293 302 301 278 295 283 277 268